Time,TemperatureF,DewpointF,PressureIn,WindDirection,WindDirectionDegrees,WindSpeedMPH,WindSpeedGustMPH,Humidity,HourlyPrecipIn,Conditions,Clouds,dailyrainin,SoftwareType,DateUTC
2013-12-06 00:01:00,54.6,53.5,29.88,WSW,239,2.0,6.0,96,0.00,,,0.00,WeatherCatV1.10B1784,2013-12-06 05:01:00,
2013-12-06 00:06:00,54.5,53.4,29.87,WSW,257,13.0,13.0,96,0.00,,,0.00,WeatherCatV1.10B1784,2013-12-06 05:06:00,
2013-12-06 00:11:00,54.5,53.4,29.86,SSE,157,3.0,5.0,96,0.00,,,0.00,WeatherCatV1.10B1784,2013-12-06 05:11:00,
2013-12-06 00:16:00,54.4,53.0,29.86,WSW,242,7.0,14.0,95,0.00,,,0.00,WeatherCatV1.10B1784,2013-12-06 05:16:00,
2013-12-06 00:21:00,54.6,53.2,29.86,WSW,240,4.0,7.0,95,0.00,,,0.00,WeatherCatV1.10B1784,2013-12-06 05:21:00,
2013-12-06 00:26:00,54.8,53.4,29.87,WSW,238,6.0,12.0,95,0.00,,,0.00,WeatherCatV1.10B1784,2013-12-06 05:26:00,
2013-12-06 00:31:00,54.9,53.2,29.87,SW,231,3.0,12.0,94,0.00,,,0.00,WeatherCatV1.10B1784,2013-12-06 05:31:00,
2013-12-06 00:36:00,54.9,53.2,29.87,WSW,242,6.0,11.0,94,0.00,,,0.00,WeatherCatV1.10B1784,2013-12-06 05:36:00,
2013-12-06 00:41:00,54.9,52.9,29.86,SSE,151,10.0,13.0,93,0.00,,,0.00,WeatherCatV1.10B1784,2013-12-06 05:41:00,
2013-12-06 00:46:00,55.0,53.0,29.87,West,274,5.0,11.0,93,0.00,,,0.00,WeatherCatV1.10B1784,2013-12-06 05:46:00,
2013-12-06 00:51:00,55.2,53.2,29.86,SW,235,10.0,12.0,93,0.00,,,0.00,WeatherCatV1.10B1784,2013-12-06 05:51:00,
2013-12-06 00:56:00,55.3,53.0,29.86,WSW,242,1.0,14.0,92,0.00,,,0.00,WeatherCatV1.10B1784,2013-12-06 05:56:00,
2013-12-06 01:01:00,55.3,53.0,29.86,SSW,210,15.0,16.0,92,0.00,,,0.00,WeatherCatV1.10B1784,2013-12-06 06:01:00,
2013-12-06 01:06:00,55.3,53.0,29.86,SW,231,9.0,11.0,92,0.00,,,0.00,WeatherCatV1.10B1784,2013-12-06 06:06:00,
2013-12-06 01:11:00,55.3,53.0,29.85,WSW,253,0.0,11.0,92,0.00,,,0.00,WeatherCatV1.10B1784,2013-12-06 06:11:00,
2013-12-06 01:16:00,55.2,52.9,29.85,WSW,248,7.0,15.0,92,0.00,,,0.00,WeatherCatV1.10B1784,2013-12-06 06:16:00,
2013-12-06 01:21:00,55.2,52.9,29.85,SW,224,5.0,16.0,92,0.00,,,0.00,WeatherCatV1.10B1784,2013-12-06 06:21:00,
2013-12-06 01:26:00,55.2,52.9,29.85,WSW,257,8.0,12.0,92,0.00,,,0.00,WeatherCatV1.10B1784,2013-12-06 06:26:00,
2013-12-06 01:31:00,55.2,52.9,29.85,WSW,253,12.0,12.0,92,0.00,,,0.00,WeatherCatV1.10B1784,2013-12-06 06:31:00,
2013-12-06 01:36:00,55.1,52.8,29.86,WSW,246,3.0,13.0,92,0.00,,,0.00,WeatherCatV1.10B1784,2013-12-06 06:36:00,
2013-12-06 01:41:00,55.1,52.8,29.86,WSW,240,0.0,8.0,92,0.00,,,0.00,WeatherCatV1.10B1784,2013-12-06 06:41:00,
2013-12-06 01:46:00,55.2,52.9,29.87,WSW,241,4.0,9.0,92,0.00,,,0.00,WeatherCatV1.10B1784,2013-12-06 06:46:00,
2013-12-06 01:51:00,55.2,52.9,29.86,WSW,238,6.0,11.0,92,0.00,,,0.00,WeatherCatV1.10B1784,2013-12-06 06:51:00,
2013-12-06 01:56:00,55.2,52.9,29.86,WSW,239,7.0,10.0,92,0.00,,,0.00,WeatherCatV1.10B1784,2013-12-06 06:56:00,
2013-12-06 02:01:00,55.2,52.9,29.87,WSW,242,6.0,16.0,92,0.00,,,0.00,WeatherCatV1.10B1784,2013-12-06 07:01:00,
2013-12-06 02:06:00,55.2,52.9,29.88,West,271,6.0,16.0,92,0.00,,,0.00,WeatherCatV1.10B1784,2013-12-06 07:06:00,
2013-12-06 02:11:00,55.3,53.0,29.88,SW,221,15.0,15.0,92,0.00,,,0.00,WeatherCatV1.10B1784,2013-12-06 07:11:00,
2013-12-06 02:16:00,55.3,53.0,29.87,WSW,253,2.0,12.0,92,0.00,,,0.00,WeatherCatV1.10B1784,2013-12-06 07:16:00,
2013-12-06 02:21:00,55.2,52.9,29.86,WSW,246,3.0,6.0,92,0.00,,,0.00,WeatherCatV1.10B1784,2013-12-06 07:21:00,
2013-12-06 02:26:00,55.2,52.9,29.84,WSW,241,4.0,5.0,92,0.00,,,0.00,WeatherCatV1.10B1784,2013-12-06 07:26:00,
2013-12-06 02:31:00,55.1,52.8,29.84,WSW,257,0.0,4.0,92,0.00,,,0.00,WeatherCatV1.10B1784,2013-12-06 07:31:00,
2013-12-06 02:36:00,55.1,52.8,29.84,WSW,244,2.0,7.0,92,0.00,,,0.00,WeatherCatV1.10B1784,2013-12-06 07:36:00,
2013-12-06 02:41:00,55.1,53.1,29.83,WSW,252,9.0,13.0,93,0.00,,,0.00,WeatherCatV1.10B1784,2013-12-06 07:41:00,
2013-12-06 02:46:00,55.1,52.8,29.83,SW,228,7.0,9.0,92,0.00,,,0.00,WeatherCatV1.10B1784,2013-12-06 07:46:00,
2013-12-06 02:51:00,55.0,52.7,29.83,WSW,248,4.0,4.0,92,0.00,,,0.00,WeatherCatV1.10B1784,2013-12-06 07:51:00,
2013-12-06 02:56:00,55.2,53.2,29.84,WSW,245,7.0,10.0,93,0.00,,,0.00,WeatherCatV1.10B1784,2013-12-06 07:56:00,
2013-12-06 03:01:00,55.3,53.3,29.84,WSW,257,2.0,3.0,93,0.00,,,0.00,WeatherCatV1.10B1784,2013-12-06 08:01:00,
2013-12-06 03:06:00,55.3,53.0,29.84,WSW,247,0.0,2.0,92,0.00,,,0.00,WeatherCatV1.10B1784,2013-12-06 08:06:00,
2013-12-06 03:11:00,55.3,53.3,29.84,SSE,155,0.0,4.0,93,0.00,,,0.00,WeatherCatV1.10B1784,2013-12-06 08:11:00,
2013-12-06 03:16:00,55.3,53.3,29.85,WSW,243,0.0,1.0,93,0.00,,,0.00,WeatherCatV1.10B1784,2013-12-06 08:16:00,
2013-12-06 03:21:00,55.3,53.3,29.85,SSW,202,2.0,3.0,93,0.00,,,0.00,WeatherCatV1.10B1784,2013-12-06 08:21:00,
2013-12-06 03:26:00,55.3,53.3,29.85,SW,227,0.0,4.0,93,0.00,,,0.00,WeatherCatV1.10B1784,2013-12-06 08:26:00,
2013-12-06 03:31:00,55.2,53.2,29.84,SW,227,0.0,3.0,93,0.00,,,0.00,WeatherCatV1.10B1784,2013-12-06 08:31:00,
2013-12-06 03:36:00,55.1,53.1,29.84,WSW,246,0.0,3.0,93,0.00,,,0.00,WeatherCatV1.10B1784,2013-12-06 08:36:00,
2013-12-06 03:41:00,55.1,53.1,29.84,WSW,241,0.0,8.0,93,0.00,,,0.00,WeatherCatV1.10B1784,2013-12-06 08:41:00,
2013-12-06 03:46:00,55.1,53.1,29.84,WSW,246,1.0,1.0,93,0.00,,,0.00,WeatherCatV1.10B1784,2013-12-06 08:46:00,
2013-12-06 03:51:00,55.1,53.1,29.83,WSW,245,0.0,2.0,93,0.00,,,0.00,WeatherCatV1.10B1784,2013-12-06 08:51:00,
2013-12-06 03:56:00,55.1,53.1,29.84,WSW,245,0.0,1.0,93,0.00,,,0.00,WeatherCatV1.10B1784,2013-12-06 08:56:00,
2013-12-06 04:01:00,55.0,53.0,29.84,WSW,244,0.0,4.0,93,0.00,,,0.00,WeatherCatV1.10B1784,2013-12-06 09:01:00,
2013-12-06 04:06:00,55.0,53.0,29.84,WSW,250,0.0,0.0,93,0.00,,,0.00,WeatherCatV1.10B1784,2013-12-06 09:06:00,
2013-12-06 04:11:00,55.0,53.0,29.83,SSE,152,0.0,4.0,93,0.00,,,0.00,WeatherCatV1.10B1784,2013-12-06 09:11:00,
2013-12-06 04:16:00,54.9,52.9,29.84,SSE,158,2.0,3.0,93,0.00,,,0.00,WeatherCatV1.10B1784,2013-12-06 09:16:00,
2013-12-06 04:21:00,54.8,53.1,29.83,SSE,161,0.0,3.0,94,0.00,,,0.00,WeatherCatV1.10B1784,2013-12-06 09:21:00,
2013-12-06 04:26:00,54.8,53.1,29.84,SSE,162,0.0,1.0,94,0.00,,,0.00,WeatherCatV1.10B1784,2013-12-06 09:26:00,
2013-12-06 04:31:00,54.8,53.1,29.84,SSE,162,0.0,1.0,94,0.00,,,0.00,WeatherCatV1.10B1784,2013-12-06 09:31:00,
2013-12-06 04:36:00,54.8,53.1,29.84,SSE,162,0.0,3.0,94,0.00,,,0.00,WeatherCatV1.10B1784,2013-12-06 09:36:00,
2013-12-06 04:41:00,54.8,53.1,29.84,SSE,162,0.0,0.0,94,0.00,,,0.00,WeatherCatV1.10B1784,2013-12-06 09:41:00,
2013-12-06 04:46:00,54.8,53.1,29.84,SSE,162,0.0,0.0,94,0.00,,,0.00,WeatherCatV1.10B1784,2013-12-06 09:46:00,
2013-12-06 04:51:00,54.7,53.0,29.84,SSE,162,0.0,1.0,94,0.00,,,0.00,WeatherCatV1.10B1784,2013-12-06 09:51:00,
2013-12-06 04:56:00,54.6,52.9,29.84,SSE,162,0.0,0.0,94,0.00,,,0.00,WeatherCatV1.10B1784,2013-12-06 09:56:00,
2013-12-06 05:01:00,54.6,52.9,29.84,SSE,162,0.0,0.0,94,0.00,,,0.00,WeatherCatV1.10B1784,2013-12-06 10:01:00,
2013-12-06 05:06:00,54.5,52.8,29.84,SSE,162,0.0,0.0,94,0.00,,,0.01,WeatherCatV1.10B1784,2013-12-06 10:06:00,
2013-12-06 05:11:00,54.5,52.8,29.84,SSE,162,0.0,0.0,94,0.00,,,0.01,WeatherCatV1.10B1784,2013-12-06 10:11:00,
2013-12-06 05:16:00,54.4,52.7,29.84,SSE,162,0.0,0.0,94,0.00,,,0.01,WeatherCatV1.10B1784,2013-12-06 10:16:00,
2013-12-06 05:21:00,54.5,52.8,29.84,South,180,0.0,4.0,94,0.00,,,0.01,WeatherCatV1.10B1784,2013-12-06 10:21:00,
2013-12-06 05:26:00,54.7,53.0,29.84,SW,231,0.0,1.0,94,0.00,,,0.01,WeatherCatV1.10B1784,2013-12-06 10:26:00,
2013-12-06 05:31:00,54.9,53.2,29.85,SW,231,0.0,5.0,94,0.00,,,0.01,WeatherCatV1.10B1784,2013-12-06 10:31:00,
2013-12-06 05:36:00,55.0,53.3,29.85,WSW,238,1.0,4.0,94,0.00,,,0.01,WeatherCatV1.10B1784,2013-12-06 10:36:00,
2013-12-06 05:41:00,55.1,53.4,29.85,SW,217,0.0,6.0,94,0.00,,,0.01,WeatherCatV1.10B1784,2013-12-06 10:41:00,
2013-12-06 05:46:00,55.1,53.4,29.86,SW,228,2.0,4.0,94,0.00,,,0.01,WeatherCatV1.10B1784,2013-12-06 10:46:00,
2013-12-06 05:51:00,55.0,53.3,29.86,SW,227,6.0,6.0,94,0.00,,,0.01,WeatherCatV1.10B1784,2013-12-06 10:51:00,
2013-12-06 05:56:00,55.0,53.3,29.86,SW,229,0.0,0.0,94,0.00,,,0.01,WeatherCatV1.10B1784,2013-12-06 10:56:00,
2013-12-06 06:01:00,55.0,53.3,29.87,SW,229,0.0,1.0,94,0.00,,,0.01,WeatherCatV1.10B1784,2013-12-06 11:01:00,
2013-12-06 06:06:00,54.8,53.1,29.86,WNW,292,0.0,2.0,94,0.00,,,0.01,WeatherCatV1.10B1784,2013-12-06 11:06:00,
2013-12-06 06:11:00,54.6,52.9,29.86,WNW,292,0.0,3.0,94,0.00,,,0.01,WeatherCatV1.10B1784,2013-12-06 11:11:00,
2013-12-06 06:16:00,53.3,51.3,29.88,NNW,339,0.0,7.0,93,0.00,,,0.01,WeatherCatV1.10B1784,2013-12-06 11:16:00,
2013-12-06 06:21:00,52.7,50.4,29.88,WNW,294,3.0,3.0,92,0.00,,,0.01,WeatherCatV1.10B1784,2013-12-06 11:21:00,
2013-12-06 06:26:00,52.1,49.8,29.88,WNW,302,6.0,6.0,92,0.00,,,0.01,WeatherCatV1.10B1784,2013-12-06 11:26:00,
2013-12-06 06:31:00,51.7,49.5,29.89,North,358,3.0,5.0,92,0.00,,,0.01,WeatherCatV1.10B1784,2013-12-06 11:31:00,
2013-12-06 06:36:00,51.2,48.7,29.88,NW,317,3.0,5.0,91,0.00,,,0.01,WeatherCatV1.10B1784,2013-12-06 11:36:00,
2013-12-06 06:41:00,50.9,48.7,29.88,NW,317,3.0,4.0,92,0.00,,,0.01,WeatherCatV1.10B1784,2013-12-06 11:41:00,
2013-12-06 06:46:00,50.6,48.4,29.88,NW,317,1.0,3.0,92,0.00,,,0.01,WeatherCatV1.10B1784,2013-12-06 11:46:00,
2013-12-06 06:51:00,50.4,48.2,29.88,NW,313,0.0,9.0,92,0.00,,,0.01,WeatherCatV1.10B1784,2013-12-06 11:51:00,
2013-12-06 06:56:00,50.4,48.2,29.89,NW,313,3.0,3.0,92,0.00,,,0.01,WeatherCatV1.10B1784,2013-12-06 11:56:00,
2013-12-06 07:01:00,50.3,48.1,29.90,NNW,343,3.0,9.0,92,0.00,,,0.01,WeatherCatV1.10B1784,2013-12-06 12:01:00,
2013-12-06 07:06:00,50.2,48.0,29.89,NNW,343,2.0,2.0,92,0.00,,,0.01,WeatherCatV1.10B1784,2013-12-06 12:06:00,
2013-12-06 07:11:00,50.0,47.8,29.88,NNW,343,1.0,1.0,92,0.00,,,0.01,WeatherCatV1.10B1784,2013-12-06 12:11:00,
2013-12-06 07:16:00,50.0,47.8,29.88,NNW,343,0.0,1.0,92,0.00,,,0.01,WeatherCatV1.10B1784,2013-12-06 12:16:00,
2013-12-06 07:21:00,49.9,47.7,29.88,NNW,343,0.0,0.0,92,0.00,,,0.01,WeatherCatV1.10B1784,2013-12-06 12:21:00,
2013-12-06 07:26:00,49.8,47.6,29.88,NNW,343,1.0,1.0,92,0.00,,,0.01,WeatherCatV1.10B1784,2013-12-06 12:26:00,
2013-12-06 07:31:00,49.7,47.5,29.88,NNW,343,0.0,0.0,92,0.00,,,0.01,WeatherCatV1.10B1784,2013-12-06 12:31:00,
2013-12-06 07:36:00,49.7,47.5,29.89,NNW,343,0.0,0.0,92,0.00,,,0.01,WeatherCatV1.10B1784,2013-12-06 12:36:00,
2013-12-06 07:41:00,49.6,47.4,29.89,NNW,343,0.0,0.0,92,0.00,,,0.01,WeatherCatV1.10B1784,2013-12-06 12:41:00,
2013-12-06 07:46:00,49.6,47.1,29.89,NNW,343,0.0,1.0,91,0.00,,,0.01,WeatherCatV1.10B1784,2013-12-06 12:46:00,
2013-12-06 07:51:00,49.5,47.0,29.90,NNW,342,2.0,5.0,91,0.00,,,0.01,WeatherCatV1.10B1784,2013-12-06 12:51:00,
2013-12-06 07:56:00,49.5,47.0,29.91,NW,321,1.0,3.0,91,0.00,,,0.01,WeatherCatV1.10B1784,2013-12-06 12:56:00,
2013-12-06 08:01:00,49.5,47.0,29.92,WNW,287,2.0,8.0,91,0.00,,,0.01,WeatherCatV1.10B1784,2013-12-06 13:01:00,
2013-12-06 08:06:00,49.6,47.1,29.92,NW,308,7.0,8.0,91,0.00,,,0.01,WeatherCatV1.10B1784,2013-12-06 13:06:00,
2013-12-06 08:11:00,49.6,46.5,29.92,NW,311,3.0,3.0,89,0.00,,,0.01,WeatherCatV1.10B1784,2013-12-06 13:11:00,
2013-12-06 08:16:00,49.6,46.5,29.91,NW,309,0.0,4.0,89,0.00,,,0.01,WeatherCatV1.10B1784,2013-12-06 13:16:00,
2013-12-06 08:21:00,49.6,46.2,29.91,WNW,291,0.0,3.0,88,0.00,,,0.01,WeatherCatV1.10B1784,2013-12-06 13:21:00,
2013-12-06 08:26:00,49.5,46.1,29.92,WNW,290,3.0,4.0,88,0.00,,,0.01,WeatherCatV1.10B1784,2013-12-06 13:26:00,
2013-12-06 08:31:00,49.3,45.9,29.92,West,277,0.0,8.0,88,0.00,,,0.01,WeatherCatV1.10B1784,2013-12-06 13:31:00,
2013-12-06 08:36:00,49.2,45.8,29.92,West,275,2.0,6.0,88,0.00,,,0.01,WeatherCatV1.10B1784,2013-12-06 13:36:00,
2013-12-06 08:41:00,49.1,45.4,29.92,West,277,0.0,4.0,87,0.00,,,0.01,WeatherCatV1.10B1784,2013-12-06 13:41:00,
2013-12-06 08:46:00,49.1,45.7,29.93,West,277,0.0,0.0,88,0.00,,,0.01,WeatherCatV1.10B1784,2013-12-06 13:46:00,
2013-12-06 08:51:00,49.0,45.6,29.93,West,281,3.0,4.0,88,0.00,,,0.01,WeatherCatV1.10B1784,2013-12-06 13:51:00,
2013-12-06 08:56:00,49.1,46.0,29.94,WNW,295,1.0,5.0,89,0.00,,,0.01,WeatherCatV1.10B1784,2013-12-06 13:56:00,
2013-12-06 09:01:00,49.0,45.6,29.94,NW,313,0.0,4.0,88,0.00,,,0.01,WeatherCatV1.10B1784,2013-12-06 14:01:00,
2013-12-06 09:06:00,48.9,45.5,29.95,WNW,287,2.0,3.0,88,0.00,,,0.01,WeatherCatV1.10B1784,2013-12-06 14:06:00,
2013-12-06 09:11:00,48.8,45.4,29.94,NNW,329,2.0,9.0,88,0.00,,,0.01,WeatherCatV1.10B1784,2013-12-06 14:11:00,
2013-12-06 09:16:00,48.7,45.3,29.94,NW,308,3.0,5.0,88,0.00,,,0.01,WeatherCatV1.10B1784,2013-12-06 14:16:00,
2013-12-06 09:21:00,48.6,44.9,29.94,NW,323,0.0,5.0,87,0.00,,,0.01,WeatherCatV1.10B1784,2013-12-06 14:21:00,
2013-12-06 09:26:00,48.5,45.1,29.95,NW,324,0.0,3.0,88,0.00,,,0.01,WeatherCatV1.10B1784,2013-12-06 14:26:00,
2013-12-06 09:31:00,48.4,45.0,29.94,WNW,282,0.0,8.0,88,0.00,,,0.01,WeatherCatV1.10B1784,2013-12-06 14:31:00,
2013-12-06 09:36:00,48.3,44.9,29.94,NW,308,1.0,3.0,88,0.00,,,0.01,WeatherCatV1.10B1784,2013-12-06 14:36:00,
2013-12-06 09:41:00,48.2,44.8,29.94,NW,318,0.0,6.0,88,0.00,,,0.01,WeatherCatV1.10B1784,2013-12-06 14:41:00,
2013-12-06 09:46:00,48.2,44.8,29.94,NW,318,0.0,2.0,88,0.00,,,0.01,WeatherCatV1.10B1784,2013-12-06 14:46:00,
2013-12-06 09:51:00,48.1,44.7,29.93,NW,312,2.0,5.0,88,0.00,,,0.01,WeatherCatV1.10B1784,2013-12-06 14:51:00,
2013-12-06 09:56:00,47.9,44.5,29.94,NW,315,2.0,2.0,88,0.00,,,0.01,WeatherCatV1.10B1784,2013-12-06 14:56:00,
2013-12-06 10:01:00,47.7,44.0,29.94,NNW,336,3.0,3.0,87,0.00,,,0.01,WeatherCatV1.10B1784,2013-12-06 15:01:00,
2013-12-06 10:06:00,47.6,43.9,29.94,NNW,328,0.0,4.0,87,0.00,,,0.01,WeatherCatV1.10B1784,2013-12-06 15:06:00,
2013-12-06 10:11:00,47.5,43.5,29.94,NW,317,1.0,4.0,86,0.00,,,0.01,WeatherCatV1.10B1784,2013-12-06 15:11:00,
2013-12-06 10:16:00,47.6,43.9,29.95,NNW,330,1.0,2.0,87,0.00,,,0.01,WeatherCatV1.10B1784,2013-12-06 15:16:00,
2013-12-06 10:21:00,47.6,43.6,29.95,NW,325,0.0,4.0,86,0.00,,,0.01,WeatherCatV1.10B1784,2013-12-06 15:21:00,
2013-12-06 10:26:00,47.6,43.3,29.95,NNW,327,0.0,3.0,85,0.00,,,0.01,WeatherCatV1.10B1784,2013-12-06 15:26:00,
2013-12-06 10:31:00,47.4,43.1,29.95,NNW,327,0.0,0.0,85,0.00,,,0.01,WeatherCatV1.10B1784,2013-12-06 15:31:00,
2013-12-06 10:36:00,47.2,42.6,29.95,NNW,329,0.0,3.0,84,0.00,,,0.01,WeatherCatV1.10B1784,2013-12-06 15:36:00,
2013-12-06 10:41:00,47.0,42.4,29.95,NW,321,0.0,5.0,84,0.00,,,0.01,WeatherCatV1.10B1784,2013-12-06 15:41:00,
2013-12-06 10:46:00,47.0,42.4,29.95,NW,319,1.0,4.0,84,0.00,,,0.01,WeatherCatV1.10B1784,2013-12-06 15:46:00,
2013-12-06 10:51:00,46.9,42.3,29.95,NW,319,0.0,3.0,84,0.00,,,0.01,WeatherCatV1.10B1784,2013-12-06 15:51:00,
2013-12-06 10:56:00,46.8,42.2,29.94,NW,320,3.0,5.0,84,0.00,,,0.01,WeatherCatV1.10B1784,2013-12-06 15:56:00,
2013-12-06 11:01:00,46.7,42.1,29.93,NW,320,0.0,2.0,84,0.00,,,0.01,WeatherCatV1.10B1784,2013-12-06 16:01:00,
2013-12-06 11:06:00,46.6,42.3,29.93,NW,320,0.0,2.0,85,0.00,,,0.01,WeatherCatV1.10B1784,2013-12-06 16:06:00,
2013-12-06 11:11:00,46.5,41.9,29.94,NW,320,0.0,0.0,84,0.00,,,0.01,WeatherCatV1.10B1784,2013-12-06 16:11:00,
2013-12-06 11:16:00,46.5,42.2,29.94,NW,320,0.0,0.0,85,0.00,,,0.01,WeatherCatV1.10B1784,2013-12-06 16:16:00,
2013-12-06 11:21:00,46.5,41.9,29.94,NW,320,0.0,3.0,84,0.00,,,0.01,WeatherCatV1.10B1784,2013-12-06 16:21:00,
2013-12-06 11:26:00,46.4,42.1,29.94,NW,320,0.0,0.0,85,0.00,,,0.01,WeatherCatV1.10B1784,2013-12-06 16:26:00,
2013-12-06 11:31:00,46.5,42.2,29.94,NW,320,1.0,1.0,85,0.00,,,0.01,WeatherCatV1.10B1784,2013-12-06 16:31:00,
2013-12-06 11:36:00,46.6,42.0,29.93,NNW,327,0.0,5.0,84,0.00,,,0.01,WeatherCatV1.10B1784,2013-12-06 16:36:00,
2013-12-06 11:41:00,46.6,42.0,29.94,NNW,327,0.0,4.0,84,0.00,,,0.01,WeatherCatV1.10B1784,2013-12-06 16:41:00,
2013-12-06 11:46:00,46.5,41.6,29.94,WSW,257,0.0,0.0,83,0.00,,,0.01,WeatherCatV1.10B1784,2013-12-06 16:46:00,
2013-12-06 11:51:00,46.5,41.9,29.94,WSW,257,1.0,1.0,84,0.00,,,0.01,WeatherCatV1.10B1784,2013-12-06 16:51:00,
2013-12-06 11:56:00,46.4,41.5,29.94,WSW,257,0.0,6.0,83,0.00,,,0.01,WeatherCatV1.10B1784,2013-12-06 16:56:00,
2013-12-06 12:01:00,46.3,41.7,29.95,WSW,257,0.0,1.0,84,0.00,,,0.01,WeatherCatV1.10B1784,2013-12-06 17:01:00,
2013-12-06 12:06:00,46.2,41.6,29.96,West,267,1.0,1.0,84,0.00,,,0.01,WeatherCatV1.10B1784,2013-12-06 17:06:00,
2013-12-06 12:11:00,46.2,41.3,29.96,WNW,292,0.0,2.0,83,0.00,,,0.01,WeatherCatV1.10B1784,2013-12-06 17:11:00,
2013-12-06 12:16:00,46.1,41.2,29.96,WNW,297,1.0,4.0,83,0.00,,,0.01,WeatherCatV1.10B1784,2013-12-06 17:16:00,
2013-12-06 12:21:00,46.0,40.8,29.96,WNW,297,0.0,2.0,82,0.00,,,0.01,WeatherCatV1.10B1784,2013-12-06 17:21:00,
2013-12-06 12:26:00,46.0,41.1,29.95,WNW,297,0.0,2.0,83,0.00,,,0.01,WeatherCatV1.10B1784,2013-12-06 17:26:00,
2013-12-06 12:31:00,46.0,41.1,29.95,WNW,297,0.0,0.0,83,0.00,,,0.01,WeatherCatV1.10B1784,2013-12-06 17:31:00,
2013-12-06 12:36:00,46.0,41.1,29.96,WNW,297,0.0,0.0,83,0.00,,,0.01,WeatherCatV1.10B1784,2013-12-06 17:36:00,
2013-12-06 12:41:00,46.1,41.2,29.96,WNW,297,0.0,2.0,83,0.00,,,0.01,WeatherCatV1.10B1784,2013-12-06 17:41:00,
2013-12-06 12:46:00,46.0,41.1,29.96,WNW,297,0.0,0.0,83,0.00,,,0.01,WeatherCatV1.10B1784,2013-12-06 17:46:00,
2013-12-06 12:51:00,46.0,41.1,29.96,WNW,297,0.0,2.0,83,0.00,,,0.01,WeatherCatV1.10B1784,2013-12-06 17:51:00,
2013-12-06 12:56:00,45.9,41.0,29.96,WNW,300,5.0,5.0,83,0.00,,,0.01,WeatherCatV1.10B1784,2013-12-06 17:56:00,
2013-12-06 13:01:00,45.7,40.8,29.96,WNW,301,0.0,0.0,83,0.00,,,0.01,WeatherCatV1.10B1784,2013-12-06 18:01:00,
2013-12-06 13:06:00,45.7,41.1,29.95,WNW,301,0.0,0.0,84,0.00,,,0.01,WeatherCatV1.10B1784,2013-12-06 18:06:00,
2013-12-06 13:11:00,45.6,40.7,29.94,WNW,301,0.0,0.0,83,0.00,,,0.01,WeatherCatV1.10B1784,2013-12-06 18:11:00,
2013-12-06 13:16:00,45.5,40.6,29.94,WNW,300,0.0,4.0,83,0.00,,,0.01,WeatherCatV1.10B1784,2013-12-06 18:16:00,
2013-12-06 13:21:00,45.5,41.0,29.94,WNW,299,0.0,2.0,84,0.00,,,0.01,WeatherCatV1.10B1784,2013-12-06 18:21:00,
2013-12-06 13:26:00,45.4,40.5,29.95,WNW,299,1.0,1.0,83,0.00,,,0.01,WeatherCatV1.10B1784,2013-12-06 18:26:00,
2013-12-06 13:31:00,45.4,40.5,29.95,WNW,300,2.0,2.0,83,0.00,,,0.01,WeatherCatV1.10B1784,2013-12-06 18:31:00,
2013-12-06 13:36:00,45.4,40.2,29.94,NW,304,0.0,0.0,82,0.00,,,0.01,WeatherCatV1.10B1784,2013-12-06 18:36:00,
2013-12-06 13:41:00,45.4,39.9,29.94,NW,304,0.0,3.0,81,0.00,,,0.01,WeatherCatV1.10B1784,2013-12-06 18:41:00,
2013-12-06 13:46:00,45.4,39.9,29.95,NW,304,0.0,6.0,81,0.00,,,0.01,WeatherCatV1.10B1784,2013-12-06 18:46:00,
2013-12-06 13:51:00,45.4,39.6,29.94,NW,308,0.0,5.0,80,0.00,,,0.01,WeatherCatV1.10B1784,2013-12-06 18:51:00,
2013-12-06 13:56:00,45.4,39.6,29.95,NW,308,0.0,3.0,80,0.00,,,0.01,WeatherCatV1.10B1784,2013-12-06 18:56:00,
2013-12-06 14:01:00,45.4,39.9,29.94,NW,306,3.0,4.0,81,0.00,,,0.01,WeatherCatV1.10B1784,2013-12-06 19:01:00,
2013-12-06 14:06:00,45.5,40.0,29.94,NW,306,0.0,2.0,81,0.00,,,0.01,WeatherCatV1.10B1784,2013-12-06 19:06:00,
2013-12-06 14:11:00,45.4,39.9,29.95,NW,306,0.0,3.0,81,0.00,,,0.01,WeatherCatV1.10B1784,2013-12-06 19:11:00,
2013-12-06 14:16:00,45.4,40.2,29.95,NW,306,0.0,1.0,82,0.00,,,0.01,WeatherCatV1.10B1784,2013-12-06 19:16:00,
2013-12-06 14:21:00,45.2,39.4,29.95,NW,306,0.0,3.0,80,0.00,,,0.01,WeatherCatV1.10B1784,2013-12-06 19:21:00,
2013-12-06 14:26:00,45.2,39.4,29.95,NW,313,1.0,5.0,80,0.00,,,0.01,WeatherCatV1.10B1784,2013-12-06 19:26:00,
2013-12-06 14:31:00,45.2,39.4,29.95,NW,313,1.0,3.0,80,0.00,,,0.01,WeatherCatV1.10B1784,2013-12-06 19:31:00,
2013-12-06 14:36:00,45.1,39.3,29.95,NW,313,2.0,2.0,80,0.00,,,0.01,WeatherCatV1.10B1784,2013-12-06 19:36:00,
2013-12-06 14:41:00,45.0,39.2,29.95,NW,311,0.0,1.0,80,0.00,,,0.01,WeatherCatV1.10B1784,2013-12-06 19:41:00,
2013-12-06 14:46:00,45.0,38.9,29.95,NW,310,0.0,1.0,79,0.00,,,0.01,WeatherCatV1.10B1784,2013-12-06 19:46:00,
2013-12-06 14:51:00,44.9,38.1,29.95,NW,321,0.0,8.0,77,0.00,,,0.01,WeatherCatV1.10B1784,2013-12-06 19:51:00,
2013-12-06 14:56:00,44.8,37.4,29.95,NW,321,2.0,4.0,75,0.00,,,0.01,WeatherCatV1.10B1784,2013-12-06 19:56:00,
2013-12-06 15:01:00,44.7,37.3,29.94,NW,321,0.0,1.0,75,0.00,,,0.01,WeatherCatV1.10B1784,2013-12-06 20:01:00,
2013-12-06 15:07:00,44.7,37.9,29.95,NW,321,0.0,0.0,77,0.00,,,0.01,WeatherCatV1.10B1784,2013-12-06 20:07:00,
2013-12-06 15:12:00,44.7,37.6,29.96,NW,321,0.0,0.0,76,0.00,,,0.01,WeatherCatV1.10B1784,2013-12-06 20:12:00,
2013-12-06 15:17:00,44.6,37.5,29.96,NW,321,0.0,1.0,76,0.00,,,0.01,WeatherCatV1.10B1784,2013-12-06 20:17:00,
2013-12-06 15:22:00,44.6,37.5,29.97,NW,321,0.0,0.0,76,0.00,,,0.01,WeatherCatV1.10B1784,2013-12-06 20:22:00,
2013-12-06 15:27:00,44.5,36.4,29.97,NW,321,0.0,1.0,73,0.00,,,0.01,WeatherCatV1.10B1784,2013-12-06 20:27:00,
2013-12-06 15:32:00,44.5,36.7,29.97,NW,321,3.0,3.0,74,0.00,,,0.01,WeatherCatV1.10B1784,2013-12-06 20:32:00,
2013-12-06 15:37:00,44.4,36.3,29.98,NW,321,0.0,0.0,73,0.00,,,0.01,WeatherCatV1.10B1784,2013-12-06 20:37:00,
2013-12-06 15:42:00,44.3,35.9,29.98,NW,321,0.0,1.0,72,0.00,,,0.01,WeatherCatV1.10B1784,2013-12-06 20:42:00,
2013-12-06 15:47:00,44.3,35.9,29.98,NW,321,0.0,1.0,72,0.00,,,0.01,WeatherCatV1.10B1784,2013-12-06 20:47:00,
2013-12-06 15:52:00,44.3,35.9,29.99,NW,321,0.0,1.0,72,0.00,,,0.01,WeatherCatV1.10B1784,2013-12-06 20:52:00,
2013-12-06 15:57:00,44.3,35.9,29.99,NW,321,0.0,0.0,72,0.00,,,0.01,WeatherCatV1.10B1784,2013-12-06 20:57:00,
2013-12-06 16:02:00,44.2,36.4,30.00,NW,321,0.0,0.0,74,0.00,,,0.01,WeatherCatV1.10B1784,2013-12-06 21:02:00,
2013-12-06 16:07:00,44.2,36.4,30.00,NW,321,0.0,1.0,74,0.00,,,0.01,WeatherCatV1.10B1784,2013-12-06 21:07:00,
2013-12-06 16:12:00,44.2,36.4,30.00,NW,321,4.0,4.0,74,0.00,,,0.01,WeatherCatV1.10B1784,2013-12-06 21:12:00,
2013-12-06 16:17:00,44.1,36.4,30.00,NW,321,0.0,4.0,74,0.00,,,0.01,WeatherCatV1.10B1784,2013-12-06 21:17:00,
2013-12-06 16:22:00,44.0,36.3,30.01,NW,321,0.0,1.0,74,0.00,,,0.01,WeatherCatV1.10B1784,2013-12-06 21:22:00,
2013-12-06 16:27:00,43.9,35.8,30.01,NW,321,0.0,0.0,73,0.00,,,0.01,WeatherCatV1.10B1784,2013-12-06 21:27:00,
2013-12-06 16:32:00,43.8,36.1,30.00,NW,321,0.0,1.0,74,0.00,,,0.01,WeatherCatV1.10B1784,2013-12-06 21:32:00,
2013-12-06 16:37:00,43.7,35.6,30.00,NW,321,0.0,4.0,73,0.00,,,0.01,WeatherCatV1.10B1784,2013-12-06 21:37:00,
2013-12-06 16:42:00,43.6,35.9,30.00,NW,321,0.0,2.0,74,0.00,,,0.01,WeatherCatV1.10B1784,2013-12-06 21:42:00,
2013-12-06 16:47:00,43.5,35.8,29.99,NW,321,0.0,0.0,74,0.00,,,0.01,WeatherCatV1.10B1784,2013-12-06 21:47:00,
2013-12-06 16:52:00,43.4,35.3,29.99,NW,321,0.0,5.0,73,0.00,,,0.01,WeatherCatV1.10B1784,2013-12-06 21:52:00,
2013-12-06 16:57:00,43.2,35.5,29.99,NW,321,1.0,2.0,74,0.00,,,0.01,WeatherCatV1.10B1784,2013-12-06 21:57:00,
2013-12-06 17:02:00,43.2,35.1,29.99,NW,321,0.0,1.0,73,0.00,,,0.01,WeatherCatV1.10B1784,2013-12-06 22:02:00,
2013-12-06 17:07:00,43.2,35.5,29.99,NW,321,0.0,0.0,74,0.00,,,0.01,WeatherCatV1.10B1784,2013-12-06 22:07:00,
2013-12-06 17:12:00,43.1,35.0,30.00,NW,321,0.0,3.0,73,0.00,,,0.01,WeatherCatV1.10B1784,2013-12-06 22:12:00,
2013-12-06 17:17:00,43.1,35.0,30.00,NW,321,1.0,3.0,73,0.00,,,0.01,WeatherCatV1.10B1784,2013-12-06 22:17:00,
2013-12-06 17:22:00,43.0,35.3,29.99,NW,321,0.0,0.0,74,0.00,,,0.01,WeatherCatV1.10B1784,2013-12-06 22:22:00,
2013-12-06 17:27:00,42.9,35.2,30.00,NW,321,0.0,1.0,74,0.00,,,0.01,WeatherCatV1.10B1784,2013-12-06 22:27:00,
2013-12-06 17:32:00,42.9,35.5,30.00,NW,321,0.0,0.0,75,0.00,,,0.01,WeatherCatV1.10B1784,2013-12-06 22:32:00,
2013-12-06 17:37:00,42.8,35.1,29.99,NW,321,0.0,0.0,74,0.00,,,0.01,WeatherCatV1.10B1784,2013-12-06 22:37:00,
2013-12-06 17:42:00,42.8,35.1,30.00,NW,321,0.0,0.0,74,0.00,,,0.01,WeatherCatV1.10B1784,2013-12-06 22:42:00,
2013-12-06 17:47:00,42.7,35.0,30.01,NW,321,0.0,0.0,74,0.00,,,0.01,WeatherCatV1.10B1784,2013-12-06 22:47:00,
2013-12-06 17:52:00,42.7,34.7,30.01,NW,321,0.0,2.0,73,0.00,,,0.01,WeatherCatV1.10B1784,2013-12-06 22:52:00,
2013-12-06 17:57:00,42.7,35.0,30.00,NW,321,0.0,0.0,74,0.00,,,0.01,WeatherCatV1.10B1784,2013-12-06 22:57:00,
2013-12-06 18:02:00,42.7,35.0,30.00,NW,321,0.0,0.0,74,0.00,,,0.01,WeatherCatV1.10B1784,2013-12-06 23:02:00,
2013-12-06 18:07:00,42.6,34.9,30.01,NW,321,0.0,2.0,74,0.00,,,0.01,WeatherCatV1.10B1784,2013-12-06 23:07:00,
2013-12-06 18:12:00,42.5,35.5,30.02,NW,321,0.0,0.0,76,0.00,,,0.01,WeatherCatV1.10B1784,2013-12-06 23:12:00,
2013-12-06 18:17:00,42.0,36.3,30.03,NW,321,0.0,0.0,80,0.00,,,0.02,WeatherCatV1.10B1784,2013-12-06 23:17:00,
2013-12-06 18:22:00,41.5,36.7,30.03,NW,321,0.0,0.0,83,0.00,,,0.02,WeatherCatV1.10B1784,2013-12-06 23:22:00,
2013-12-06 18:27:00,41.1,36.3,30.03,NW,321,0.0,0.0,83,0.00,,,0.02,WeatherCatV1.10B1784,2013-12-06 23:27:00,
2013-12-06 18:32:00,40.8,36.6,30.03,NW,321,0.0,0.0,85,0.05,,,0.03,WeatherCatV1.10B1784,2013-12-06 23:32:00,
2013-12-06 18:37:00,40.5,36.6,30.03,NW,321,0.0,0.0,86,0.05,,,0.03,WeatherCatV1.10B1784,2013-12-06 23:37:00,
2013-12-06 18:42:00,40.2,36.4,30.03,NW,321,0.0,0.0,86,0.04,,,0.03,WeatherCatV1.10B1784,2013-12-06 23:42:00,
2013-12-06 18:47:00,40.0,36.4,30.02,NW,321,2.0,3.0,87,0.00,,,0.03,WeatherCatV1.10B1784,2013-12-06 23:47:00,
2013-12-06 18:52:00,39.8,35.4,30.02,NW,321,0.0,2.0,84,0.00,,,0.04,WeatherCatV1.10B1784,2013-12-06 23:52:00,
2013-12-06 18:57:00,39.5,35.4,30.02,NW,321,0.0,0.0,85,0.00,,,0.04,WeatherCatV1.10B1784,2013-12-06 23:57:00,
2013-12-06 19:02:00,39.2,35.1,30.02,NW,321,0.0,0.0,85,0.00,,,0.05,WeatherCatV1.10B1784,2013-12-07 00:02:00,
2013-12-06 19:07:00,38.9,34.8,30.04,NW,321,0.0,0.0,85,0.06,,,0.05,WeatherCatV1.10B1784,2013-12-07 00:07:00,
2013-12-06 19:12:00,38.5,34.1,30.03,NW,321,0.0,0.0,84,0.06,,,0.05,WeatherCatV1.10B1784,2013-12-07 00:12:00,
2013-12-06 19:17:00,38.1,34.0,30.05,NW,321,1.0,3.0,85,0.04,,,0.05,WeatherCatV1.10B1784,2013-12-07 00:17:00,
2013-12-06 19:22:00,37.8,34.0,30.05,NW,321,0.0,1.0,86,0.00,,,0.05,WeatherCatV1.10B1784,2013-12-07 00:22:00,
2013-12-06 19:27:00,37.7,34.2,30.04,NW,321,0.0,0.0,87,0.00,,,0.06,WeatherCatV1.10B1784,2013-12-07 00:27:00,
2013-12-06 19:32:00,37.7,34.2,30.04,NW,321,0.0,0.0,87,0.00,,,0.06,WeatherCatV1.10B1784,2013-12-07 00:32:00,
2013-12-06 19:37:00,37.7,34.5,30.04,NW,321,0.0,0.0,88,0.06,,,0.07,WeatherCatV1.10B1784,2013-12-07 00:37:00,
2013-12-06 19:42:00,37.7,34.5,30.03,NW,321,0.0,0.0,88,0.06,,,0.07,WeatherCatV1.10B1784,2013-12-07 00:42:00,
2013-12-06 19:47:00,37.7,34.8,30.04,NW,321,1.0,2.0,89,0.05,,,0.07,WeatherCatV1.10B1784,2013-12-07 00:47:00,
2013-12-06 19:52:00,37.8,34.9,30.03,NW,321,0.0,0.0,89,0.00,,,0.07,WeatherCatV1.10B1784,2013-12-07 00:52:00,
2013-12-06 19:57:00,37.7,34.8,30.04,NW,321,0.0,0.0,89,0.00,,,0.07,WeatherCatV1.10B1784,2013-12-07 00:57:00,
2013-12-06 20:02:00,37.7,34.8,30.05,NW,321,0.0,0.0,89,0.00,,,0.07,WeatherCatV1.10B1784,2013-12-07 01:02:00,
2013-12-06 20:07:00,37.5,34.6,30.05,NW,321,0.0,4.0,89,0.00,,,0.08,WeatherCatV1.10B1784,2013-12-07 01:07:00,
2013-12-06 20:12:00,37.5,34.6,30.05,NW,321,0.0,0.0,89,0.00,,,0.08,WeatherCatV1.10B1784,2013-12-07 01:12:00,
2013-12-06 20:17:00,37.4,34.7,30.05,NW,321,0.0,2.0,90,0.05,,,0.09,WeatherCatV1.10B1784,2013-12-07 01:17:00,
2013-12-06 20:22:00,37.3,34.6,30.05,NW,321,0.0,0.0,90,0.05,,,0.09,WeatherCatV1.10B1784,2013-12-07 01:22:00,
2013-12-06 20:27:00,37.2,34.5,30.04,NW,321,0.0,0.0,90,0.05,,,0.09,WeatherCatV1.10B1784,2013-12-07 01:27:00,
2013-12-06 20:32:00,37.1,34.4,30.04,NW,321,0.0,0.0,90,0.04,,,0.09,WeatherCatV1.10B1784,2013-12-07 01:32:00,
2013-12-06 20:37:00,36.9,34.5,30.04,NW,321,0.0,0.0,91,0.00,,,0.09,WeatherCatV1.10B1784,2013-12-07 01:37:00,
2013-12-06 20:42:00,36.8,34.4,30.05,NW,321,0.0,0.0,91,0.00,,,0.10,WeatherCatV1.10B1784,2013-12-07 01:42:00,
2013-12-06 20:47:00,36.6,34.2,30.05,NW,321,0.0,0.0,91,0.00,,,0.10,WeatherCatV1.10B1784,2013-12-07 01:47:00,
2013-12-06 20:52:00,36.6,34.2,30.06,NW,321,0.0,0.0,91,0.06,,,0.11,WeatherCatV1.10B1784,2013-12-07 01:52:00,
2013-12-06 20:57:00,36.5,34.1,30.08,NW,321,0.0,0.0,91,0.06,,,0.11,WeatherCatV1.10B1784,2013-12-07 01:57:00,
2013-12-06 21:02:00,36.5,34.1,30.11,NW,321,1.0,2.0,91,0.04,,,0.11,WeatherCatV1.10B1784,2013-12-07 02:02:00,
2013-12-06 21:07:00,36.4,34.0,30.12,NW,321,2.0,3.0,91,0.00,,,0.12,WeatherCatV1.10B1784,2013-12-07 02:07:00,
2013-12-06 21:12:00,36.3,33.9,30.12,NW,321,3.0,3.0,91,0.00,,,0.12,WeatherCatV1.10B1784,2013-12-07 02:12:00,
2013-12-06 21:17:00,36.0,33.6,30.11,NW,321,0.0,1.0,91,0.06,,,0.13,WeatherCatV1.10B1784,2013-12-07 02:17:00,
2013-12-06 21:22:00,35.7,33.3,30.11,NW,321,3.0,5.0,91,0.06,,,0.13,WeatherCatV1.10B1784,2013-12-07 02:22:00,
2013-12-06 21:27:00,35.5,32.9,30.10,NW,308,2.0,3.0,90,0.05,,,0.13,WeatherCatV1.10B1784,2013-12-07 02:27:00,
2013-12-06 21:32:00,35.1,32.5,30.10,NW,307,4.0,4.0,90,0.04,,,0.13,WeatherCatV1.10B1784,2013-12-07 02:32:00,
2013-12-06 21:37:00,35.0,32.6,30.10,NW,307,1.0,3.0,91,0.00,,,0.13,WeatherCatV1.10B1784,2013-12-07 02:37:00,
2013-12-06 21:42:00,34.8,32.4,30.10,NW,307,0.0,1.0,91,0.00,,,0.13,WeatherCatV1.10B1784,2013-12-07 02:42:00,
2013-12-06 21:47:00,34.4,32.0,30.09,NW,308,0.0,4.0,91,0.00,,,0.13,WeatherCatV1.10B1784,2013-12-07 02:47:00,
2013-12-06 21:52:00,34.1,31.8,30.09,NW,307,0.0,3.0,91,0.00,,,0.13,WeatherCatV1.10B1784,2013-12-07 02:52:00,
2013-12-06 21:57:00,33.7,31.6,30.08,NW,307,1.0,1.0,92,0.00,,,0.13,WeatherCatV1.10B1784,2013-12-07 02:57:00,
2013-12-06 22:02:00,33.6,31.5,30.07,NW,307,3.0,3.0,92,0.00,,,0.13,WeatherCatV1.10B1784,2013-12-07 03:02:00,
2013-12-06 22:07:00,33.4,31.3,30.06,NW,308,1.0,3.0,92,0.00,,,0.13,WeatherCatV1.10B1784,2013-12-07 03:07:00,
2013-12-06 22:12:00,33.3,31.2,30.05,NW,307,0.0,0.0,92,0.00,,,0.13,WeatherCatV1.10B1784,2013-12-07 03:12:00,
2013-12-06 22:17:00,33.3,31.5,30.05,NW,307,0.0,0.0,93,0.00,,,0.13,WeatherCatV1.10B1784,2013-12-07 03:17:00,
2013-12-06 22:22:00,33.2,31.4,30.05,NW,307,0.0,1.0,93,0.00,,,0.13,WeatherCatV1.10B1784,2013-12-07 03:22:00,
2013-12-06 22:27:00,33.2,31.4,30.06,NW,308,0.0,0.0,93,0.00,,,0.13,WeatherCatV1.10B1784,2013-12-07 03:27:00,
2013-12-06 22:32:00,33.2,31.4,30.05,NW,308,0.0,0.0,93,0.00,,,0.13,WeatherCatV1.10B1784,2013-12-07 03:32:00,
2013-12-06 22:37:00,33.2,31.4,30.06,NW,308,0.0,0.0,93,0.00,,,0.13,WeatherCatV1.10B1784,2013-12-07 03:37:00,
2013-12-06 22:42:00,33.2,31.4,30.07,NW,307,0.0,0.0,93,0.00,,,0.14,WeatherCatV1.10B1784,2013-12-07 03:42:00,
2013-12-06 22:47:00,33.2,31.4,30.08,NW,307,0.0,0.0,93,0.00,,,0.14,WeatherCatV1.10B1784,2013-12-07 03:47:00,
2013-12-06 22:52:00,33.2,31.4,30.10,NW,308,0.0,0.0,93,0.00,,,0.14,WeatherCatV1.10B1784,2013-12-07 03:52:00,
2013-12-06 22:57:00,33.2,31.4,30.10,NW,307,0.0,0.0,93,0.00,,,0.14,WeatherCatV1.10B1784,2013-12-07 03:57:00,
2013-12-06 23:02:00,33.3,31.5,30.10,NW,307,0.0,0.0,93,0.00,,,0.14,WeatherCatV1.10B1784,2013-12-07 04:02:00,
2013-12-06 23:07:00,33.3,31.5,30.09,NW,308,0.0,1.0,93,0.00,,,0.14,WeatherCatV1.10B1784,2013-12-07 04:07:00,
2013-12-06 23:12:00,33.3,31.5,30.09,NW,308,0.0,0.0,93,0.00,,,0.14,WeatherCatV1.10B1784,2013-12-07 04:12:00,
2013-12-06 23:17:00,33.2,31.4,30.09,NW,308,0.0,0.0,93,0.00,,,0.14,WeatherCatV1.10B1784,2013-12-07 04:17:00,
2013-12-06 23:22:00,33.1,31.3,30.09,NW,308,0.0,0.0,93,0.00,,,0.14,WeatherCatV1.10B1784,2013-12-07 04:22:00,
2013-12-06 23:27:00,33.1,31.3,30.08,NW,307,0.0,0.0,93,0.00,,,0.14,WeatherCatV1.10B1784,2013-12-07 04:27:00,
2013-12-06 23:32:00,33.0,31.2,30.08,NW,307,0.0,0.0,93,0.00,,,0.14,WeatherCatV1.10B1784,2013-12-07 04:32:00,
2013-12-06 23:37:00,33.0,31.2,30.08,NW,308,0.0,0.0,93,0.00,,,0.14,WeatherCatV1.10B1784,2013-12-07 04:37:00,
2013-12-06 23:42:00,32.9,31.1,30.08,NW,308,0.0,0.0,93,0.00,,,0.14,WeatherCatV1.10B1784,2013-12-07 04:42:00,
2013-12-06 23:47:00,32.9,31.1,30.08,NW,308,0.0,0.0,93,0.00,,,0.14,WeatherCatV1.10B1784,2013-12-07 04:47:00,
2013-12-06 23:52:00,32.9,31.4,30.08,NW,307,0.0,0.0,94,0.00,,,0.14,WeatherCatV1.10B1784,2013-12-07 04:52:00,
2013-12-06 23:57:00,33.0,31.5,30.07,NW,307,0.0,0.0,94,0.00,,,0.14,WeatherCatV1.10B1784,2013-12-07 04:57:00,